RH
22 24 29 32 36 42 46 49 51 25 19 16 15 17 15 14 12 9 6 3 4 6 9 8 9 12 13 13 12 15 14 10
21 26 30 36 42 47 49 52 55 25 20 16 16 18 15 14 11 7 4 3 6 9 10 10 16 18 20 24 26 32 35 30
21 28 33 38 44 49 52 56 56 24 19 16 18 17 14 12 8 5 3 4 8 11 12 15 20 23 28 35 39 45 59 57
22 30 34 40 45 50 54 59 49 23 18 16 19 16 14 11 7 4 3 6 11 12 14 21 27 32 39 44 53 63 66 74
24 28 35 40 45 50 55 62 34 21 17 18 19 15 13 10 6 4 4 10 13 13 16 27 35 43 52 58 70 80 82 78
25 32 35 38 44 52 58 60 25 20 17 20 18 15 12 8 5 4 6 13 13 12 20 33 42 52 62 74 86 89 86 86
28 32 34 37 45 54 64 46 23 19 18 20 17 15 11 6 4 3 7 13 14 12 24 38 49 61 77 89 91 87 94 97
29 31 33 37 48 57 62 27 21 17 19 20 16 14 9 6 4 3 6 13 14 12 23 39 53 70 95 96 92 97 98 99
28 30 34 41 52 61 45 24 20 18 20 19 16 12 8 6 4 4 8 16 14 11 23 43 60 86 97 96 98 98 100 96
28 30 36 46 54 59 26 22 18 19 20 18 15 12 8 5 3 4 10 17 15 10 21 45 66 95 95 94 96 100 97 96
28 30 39 50 60 36 22 21 18 20 21 17 15 12 7 5 3 4 10 18 15 10 20 48 71 96 89 94 95 96 96 96
29 32 43 57 48 23 22 20 19 21 21 17 15 11 7 5 3 4 9 18 16 10 17 48 75 94 88 95 96 96 96 96
30 38 52 56 28 22 21 19 20 22 20 17 15 12 7 5 3 4 8 17 17 11 13 47 74 95 94 95 97 96 96 96
35 47 56 36 22 21 20 20 21 22 20 18 16 12 8 5 3 3 5 14 18 15 12 42 71 94 95 96 97 96 96 96
44 51 42 25 20 21 20 21 22 23 20 18 16 13 9 5 4 3 3 6 16 18 12 33 76 95 96 96 96 96 98 100
47 44 29 18 20 21 20 22 22 23 20 19 17 14 9 6 5 4 3 4 7 18 14 22 70 95 93 96 97 97 96 96
38 33 20 18 21 21 21 22 23 23 21 19 18 16 10 6 6 4 4 3 4 11 17 15 56 94 96 96 96 96 98 98
32 22 16 19 22 21 23 23 23 23 22 20 19 17 12 8 6 6 4 3 3 4 15 15 41 82 97 96 97 98 100 98
19 16 15 19 22 21 24 23 23 23 22 21 20 18 15 10 7 7 6 4 3 3 6 16 20 58 93 97 96 96 99 100
Wind_Speed
9 4 2 4 9 14 19 24 29 31 33 34 34 35 37 40 41 42 42 39 36 34 33 33 33 32 30 29 28 26 28 29
8 4 1 4 9 13 19 24 30 32 33 33 34 36 38 40 41 41 40 37 34 34 34 33 32 30 29 29 29 28 27 29
6 5 2 4 9 14 19 25 31 32 33 33 35 37 39 40 41 41 39 36 34 33 34 34 32 28 27 28 29 29 26 28
6 5 4 5 10 14 20 26 31 31 32 33 35 37 38 38 39 39 37 34 33 33 35 34 32 30 29 30 30 30 28 22
9 6 5 8 11 15 21 26 30 30 31 32 35 36 37 39 40 38 34 32 32 33 34 33 32 31 31 32 31 29 26 21
8 6 8 10 12 16 21 28 29 30 30 32 35 36 38 39 38 34 32 30 31 31 33 33 32 32 32 32 29 26 24 21
11 6 4 11 12 16 21 28 28 28 29 32 34 36 36 36 35 34 31 29 28 30 32 33 32 32 33 31 27 24 21 20
8 3 6 11 12 16 23 25 25 26 29 32 33 34 35 36 37 36 33 30 29 31 34 34 33 34 33 29 25 24 24 23
8 4 9 10 12 17 23 23 24 26 29 30 31 32 34 37 38 36 33 31 31 33 35 35 34 33 29 25 25 26 27 25
5 4 8 9 11 19 20 21 23 26 27 28 30 32 34 37 37 35 32 30 31 33 34 35 35 32 28 26 27 28 26 21
4 5 5 6 12 17 18 20 23 24 25 27 29 32 35 37 36 34 31 29 30 32 34 35 35 32 28 28 28 27 22 22
3 4 3 7 14 15 16 20 21 22 25 27 29 31 34 37 37 35 32 29 29 32 35 37 36 31 30 30 31 27 24 22
5 3 4 9 12 13 16 17 19 22 24 26 29 31 34 36 36 35 33 30 29 33 36 38 34 32 30 31 32 30 28 25
5 2 5 9 10 13 14 16 19 22 23 26 28 30 33 36 35 35 34 31 30 32 35 37 36 32 30 34 33 32 32 30
5 2 5 7 10 11 12 15 19 21 23 26 28 30 33 35 36 36 35 34 32 33 36 38 37 33 33 36 34 38 39 33
4 2 4 6 8 9 12 15 18 21 24 26 28 31 32 34 36 37 37 37 36 34 36 38 37 34 38 37 37 41 37 28
4 1 2 6 6 9 12 15 19 21 24 25 27 29 30 33 35 37 38 38 37 35 36 39 37 39 38 38 36 45 40 44
5 2 5 5 6 9 13 15 17 20 23 25 27 28 30 31 34 36 38 40 39 36 36 37 39 40 42 38 40 48 43 35
6 6 6 4 6 11 13 14 17 20 23 25 26 28 29 31 33 35 39 41 41 37 36 37 38 41 43 41 38 44 49 44
Wind_Direction
211 196 116 36 12 360 353 350 347 347 346 344 343 341 340 338 337 337 334 332 332 333 333 332 331 329 325 320 317 316 311 304
222 211 201 13 1 352 347 345 344 347 345 343 342 341 342 339 338 337 335 334 336 337 337 336 334 330 326 323 321 320 313 303
216 220 262 338 344 341 340 341 344 344 342 342 342 343 343 340 340 339 338 338 338 340 341 340 337 332 326 324 321 317 314 306
216 225 269 319 327 330 335 338 341 342 343 344 344 346 342 342 341 339 339 340 342 344 343 341 338 335 331 328 325 322 319 310
226 224 270 297 310 323 329 336 340 343 343 344 346 344 343 345 344 343 343 345 347 346 344 343 341 339 336 332 329 327 321 318
210 224 271 287 302 316 326 336 340 342 344 347 347 345 347 347 345 346 349 350 347 346 346 346 344 341 338 334 336 335 328 317
205 214 258 278 297 312 327 336 340 342 347 349 348 347 348 347 349 352 354 353 351 349 350 350 348 345 341 343 342 335 328 318
199 203 287 283 291 312 331 335 340 346 351 350 348 349 350 352 355 357 357 355 355 354 354 354 353 351 350 344 341 337 331 326
200 242 270 268 291 320 330 338 344 352 351 349 350 352 355 358 0 360 358 359 358 358 357 356 357 356 349 348 346 345 338 331
184 239 252 264 303 324 335 342 352 353 350 352 354 358 0 3 4 4 2 2 2 0 359 0 3 358 355 357 356 351 344 339
187 230 248 282 316 331 340 351 355 350 354 356 359 3 5 7 8 7 6 7 7 3 3 5 8 2 1 4 3 357 355 351
197 234 258 304 327 338 349 357 352 354 1 0 5 8 9 11 11 10 9 12 12 8 8 12 11 5 10 9 9 9 10 12
197 200 279 321 335 349 359 354 355 4 4 5 11 11 14 15 14 14 14 16 17 14 14 18 13 12 15 15 18 20 25 43
171 206 307 331 347 3 356 360 5 10 8 12 15 16 18 19 18 20 20 21 22 20 19 22 19 20 24 25 27 29 43 64
166 260 325 343 9 1 4 8 15 14 14 16 19 19 21 22 23 24 25 27 28 25 24 26 24 29 34 35 36 39 59 77
182 274 334 11 15 6 14 20 21 18 18 21 21 22 24 26 27 28 28 31 32 30 28 31 29 35 44 43 46 50 67 80
179 221 15 40 16 22 27 27 27 23 25 25 25 26 28 30 31 32 32 34 36 35 32 35 35 41 50 50 53 55 63 73
164 159 77 56 31 39 38 33 31 29 29 27 28 28 31 34 35 35 37 37 37 38 39 39 40 41 54 54 55 61 65 74
155 123 91 73 52 54 44 38 37 35 33 31 30 31 32 36 38 38 40 41 41 41 43 44 47 49 53 59 62 64 69 78